STARLINK-32041, 60202

Orbit data source: Space-Track

STARLINK-32041, 60202 is a payload satellite owned by SpaceX/Seattle (US) in LEO that was launched on Wed, 03 Jul 2024 UTC via an FALCON 9 launch vehicle from the Air Force Eastern Test Range (AFETR). Payload-class satellites include a variety of spacecraft equipped with specific instruments for various scientific and technological missions. These include communications satellites like Starlink; space stations such as the ISS; scientific satellites like the Hubble; Earth observation satellites from companies like Planet Labs, Umbra, and HawkEye 360; GPS; miniature CubeSats for education and research; and military/defense satellites.

Loading next visibility...
Identifier
60202, 2024-124V
Orbit
LEO
Last TLE update
10 hours ago
Origin
Manufacturer
SpaceX/Seattle
Mission
Operational Commercial Communications
Bus & Motor
STARLINK V2M, Unknown motor
Mass
730 kg wet, ~700 kg dry
Launch date (UTC)
Icon of a cake. It is the launch day of the satellite!2024-07-03 (1 year ago)
Launch vehicle
FALCON 9
Launch site
Air Force Eastern Test Range (AFETR)
Object type
Payload
Rocket body
Debris
Shape & HBR
Box + 2 Pan, 29 m
Radar Cross Section
36.964 m², Large (>1 m²)

Expand to show TLE details & history

TLE from 10 hours ago
0 STARLINK-32041
1 60202U 24124V   25183.84879653 -.00000036  00000-0  10902-4 0  9998
2 60202  53.1613  43.0002 0001158  98.2637 261.8495 15.30189924 57245
Epoch: 2025-07-02T20:22Z
TLE epoch observation values (Epoch: 2025-07-02T20:22:16.02Z)
Latitude
-0.00002°
Longitude
176.30943°
Altitude
476.258 km
Speed
7.629 km/s
True Right ascension
02h 52m 00s
True Declination
0° 00' 00"
Sunlit
Object was in daylight at epoch
Visualization orbit readout
Latitude
-26.22947°
Longitude
15.8439°
Altitude
483.282 km
Speed
7.624 km/s
Apparent Right ascension
12h 39m 45s
Apparent Declination
-63° 46' 57"
Sunlit
Object is in full shadow
Visualization observer readout
Local Sidereal Time
18:27:59
Azimuth
212.126° SW
Elevation
-33.936°
Doppler factor
1
Orbital elements
Apogee altitude
476.295 km
Perigee altitude
474.708 km
Semi-major axis
6,853.638 km
Eccentricity
0.00012
Inclination
53.1613°
RAAN
43.0002°
Arg. of periapsis
98.2637°
True anomaly
Unknown
Mean anomaly
261.8495°
Eccentric anomaly
Unknown
Mean motion
3.82526 °/min
Orbital period
94.11 mins
BSTAR
0.000010902
Loading maneuver chart data...
Loading SW <> Apogee altitude chart data...
Loading historical data...
Loading historical data...
Loading historical data...
Loading historical data...
Loading historical data...
Loading historical data...
Loading historical data...

STARLINK-32041 Visibility forecast

Observer location: undefined°, undefined°

Span
Click to sort rows by Start time (UTC) header in descending order
Start Az.
Max El. time (UTC)
Max El. Az.
Max El.
End time (UTC)
End Az.
6 mins2025-07-03 16:55:16.105Z206.883° SW2025-07-03 16:58:16.105Z112.286° ESE36.63°2025-07-03 17:01:16.105Z60.06° ENE
4 mins2025-07-03 18:34:16.105Z292.741° NW2025-07-03 18:36:16.105Z340.631° N22.339°2025-07-03 18:38:16.105Z21.141° NNE
5 mins2025-07-03 23:31:16.105Z337.62° N2025-07-03 23:33:16.105Z54.798° ENE34.053°2025-07-03 23:36:16.105Z107.949° ESE
4 mins2025-07-04 01:09:16.105Z260.058° W2025-07-04 01:10:16.105Z238.05° WSW19.871°2025-07-04 01:13:16.105Z181.038° SSW
|